Vertical_Velocity
0 -1 0 -1 -0 -1 1 -0 -2 0 -2 -1 0 -1 -1 -0 0 -0 -1 0 -1 -1 -1 -2 -1 -2 -1 -2 -1 -0 -1 -1 -0
2 0 -1 -1 0 -1 1 0 0 1 -2 -1 0 -1 -0 1 1 -1 -1 -1 -0 -1 -2 -2 -1 -0 -1 -1 -1 -0 -2 -2 0
1 0 -1 2 -2 1 1 -0 1 -1 -3 -0 -1 -2 -1 -1 -1 -2 -1 -1 -2 -1 -1 -1 -1 -0 -1 -1 -2 -1 -2 -1 -1
3 -1 0 1 1 -1 -2 -0 2 -1 -1 -1 -1 -4 1 -1 -1 -3 -1 -1 -1 -2 -2 -1 -1 -1 -2 -1 -1 -2 -3 -1 -2
-1 1 -1 -2 1 0 -0 -2 0 -1 0 -1 -1 -4 -2 -2 -2 -2 -2 0 1 -1 -1 -1 -1 -2 -1 -1 -1 -0 -1 -1 -2
-2 -2 -1 -0 1 -2 -0 -0 -1 -2 -1 1 -2 -1 -2 -2 -2 -2 -1 -1 -2 -2 -1 -1 -2 -2 -1 -1 -0 -1 -1 -1 -2
-4 -2 -3 -0 -2 -2 0 -0 -0 -1 0 1 -2 -2 -1 -0 -2 -2 -2 -2 -2 -3 -2 -1 -1 -1 -1 -1 0 -1 -1 -1 -0
-2 -2 -2 -4 -4 -3 -2 0 -1 -0 1 -0 -2 -2 -0 -1 -1 -0 -0 0 -1 -1 -1 -1 -0 -1 -0 -1 -1 -1 -1 -1 0
-1 -0 -1 1 -0 -2 -4 -1 -2 -1 0 1 -1 -1 -1 -1 -1 0 -2 1 0 -1 -1 -1 -2 -1 -2 -2 -1 -1 -1 -1 -0
-1 1 2 1 1 -0 0 -0 -0 1 1 -0 -2 -1 -1 -1 -0 -0 -1 -0 -1 -1 0 -2 -2 -1 -1 -1 -2 -2 -2 -1 1
-0 1 -0 0 -1 -0 -0 1 1 1 0 -0 -1 -1 -1 -1 -0 -1 -0 -1 1 -2 -1 -1 -2 -2 -2 -1 -2 -0 -2 -1 1
1 0 1 -0 -0 0 -0 0 1 0 1 -1 -1 -1 -0 0 -1 -1 -1 -1 -2 -1 -0 -1 1 -1 -1 1 -1 -1 -1 1 -0
0 2 -0 -0 -0 1 1 -0 -0 -2 -2 -1 -0 -1 -2 0 -1 -0 -0 0 -2 -1 -3 -2 -1 1 0 -1 1 1 -3 -2 0
2 -1 -1 -0 -0 1 1 1 1 -1 -1 -1 -0 -1 -2 -1 -1 -1 -2 -2 -2 -1 -3 -1 -2 -1 -1 -0 -3 -2 2 4 -1
3 2 -0 1 0 1 1 0 -1 0 -1 -2 -2 -1 -1 -0 -0 0 -1 -0 -1 1 -2 -1 -1 -2 -2 -1 -2 -4 -3 0 1
3 1 -1 0 3 1 0 -0 2 -0 -1 -0 -1 -1 -1 1 -0 -3 -3 2 0 1 1 1 -1 -1 -0 0 -0 -0 -1 -5 1
6 3 2 2 2 0 0 1 -0 1 1 -0 -0 2 -0 4 0 -1 -1 -2 1 -0 2 2 -1 -0 -1 -0 -1 -1 -2 -2 -7
2 -0 -0 2 2 2 0 -0 -0 -0 1 -0 1 -2 3 4 1 2 1 3 2 4 -1 -1 1 0 1 0 -1 -3 0 6 1
4 8 5 2 0 0 3 4 3 -4 -2 -4 -0 -1 4 -0 -5 3 -1 1 1 1 1 -2 -2 -4 3 -1 2 -4 3 -1 -1
-7 -5 17 6 8 6 5 15 0 -0 -3 -1 -1 1 1 4 -2 -6 -0 1 1 -0 -0 -1 1 1 -2 2 1 -3 0 0 1
Height
3196 3196 3196 3196 3197 3197 3198 3198 3198 3198 3199 3199 3198 3198 3198 3197 3197 3197 3196 3196 3195 3194 3194 3193 3193 3192 3191 3190 3190 3189 3188 3187 3186
3197 3197 3198 3198 3199 3199 3200 3200 3200 3200 3200 3200 3200 3200 3199 3199 3198 3198 3197 3196 3196 3195 3195 3194 3193 3193 3192 3191 3190 3189 3188 3187 3186
3198 3199 3199 3200 3201 3201 3202 3202 3202 3202 3202 3201 3201 3201 3201 3200 3199 3198 3198 3197 3196 3196 3196 3195 3194 3194 3193 3192 3190 3189 3189 3187 3186
3199 3200 3201 3202 3202 3203 3203 3204 3204 3204 3203 3203 3203 3203 3203 3202 3201 3200 3199 3198 3198 3197 3196 3196 3195 3194 3193 3192 3191 3190 3189 3188 3187
3200 3201 3202 3203 3204 3204 3205 3206 3206 3206 3205 3205 3205 3205 3204 3204 3203 3202 3201 3200 3199 3198 3197 3196 3196 3194 3193 3192 3191 3190 3189 3188 3187
3201 3202 3203 3204 3205 3205 3206 3207 3207 3207 3207 3207 3206 3206 3205 3205 3204 3203 3202 3201 3200 3199 3198 3197 3196 3195 3193 3192 3191 3190 3189 3188 3187
3203 3204 3204 3205 3206 3206 3207 3208 3207 3208 3208 3208 3207 3206 3206 3205 3204 3204 3203 3202 3201 3200 3199 3198 3197 3195 3193 3192 3191 3190 3189 3188 3186
3204 3204 3205 3206 3207 3207 3207 3207 3208 3207 3208 3207 3207 3206 3206 3205 3204 3203 3203 3202 3201 3200 3199 3198 3196 3195 3193 3192 3191 3190 3188 3187 3185
3203 3204 3204 3205 3206 3206 3206 3207 3207 3207 3208 3207 3206 3206 3205 3204 3203 3202 3202 3201 3199 3199 3198 3197 3196 3194 3193 3192 3191 3189 3188 3186 3185
3202 3203 3204 3204 3205 3205 3205 3206 3206 3207 3207 3207 3206 3205 3204 3203 3202 3201 3200 3199 3198 3197 3196 3195 3194 3192 3191 3190 3189 3188 3187 3185 3183
3201 3202 3202 3203 3203 3203 3204 3204 3205 3205 3205 3205 3204 3203 3202 3201 3200 3199 3198 3196 3195 3194 3193 3192 3191 3190 3189 3187 3187 3185 3184 3183 3181
3198 3199 3200 3200 3200 3201 3201 3202 3202 3203 3203 3203 3202 3201 3200 3199 3198 3196 3195 3193 3192 3191 3189 3188 3187 3186 3185 3184 3183 3182 3181 3179 3178
3195 3196 3196 3197 3197 3198 3198 3199 3199 3200 3200 3200 3199 3198 3197 3196 3195 3193 3192 3190 3189 3188 3186 3185 3184 3183 3181 3180 3180 3178 3176 3175 3174
3191 3192 3192 3193 3193 3194 3195 3195 3196 3196 3197 3196 3196 3195 3194 3193 3192 3190 3189 3187 3185 3184 3183 3181 3180 3179 3177 3176 3175 3174 3173 3171 3170
3186 3186 3187 3189 3189 3190 3191 3191 3192 3192 3193 3193 3193 3192 3191 3190 3189 3187 3186 3184 3182 3181 3179 3177 3176 3174 3173 3171 3169 3167 3166 3167 3166
3181 3182 3183 3184 3185 3185 3186 3187 3188 3189 3189 3189 3189 3188 3187 3186 3186 3184 3183 3180 3178 3177 3175 3174 3172 3170 3168 3166 3164 3162 3159 3157 3159
3176 3177 3178 3180 3180 3181 3182 3183 3184 3184 3184 3185 3184 3184 3184 3182 3181 3180 3178 3176 3174 3172 3171 3168 3166 3164 3162 3160 3158 3156 3155 3153 3148
3171 3173 3173 3175 3176 3177 3178 3178 3179 3179 3179 3179 3179 3178 3177 3177 3176 3175 3174 3171 3169 3166 3164 3162 3160 3157 3156 3154 3152 3150 3149 3148 3146
3167 3168 3169 3170 3171 3173 3173 3174 3174 3174 3174 3173 3173 3172 3170 3169 3167 3168 3167 3164 3162 3158 3156 3155 3153 3152 3150 3148 3147 3145 3143 3142 3141
3157 3161 3163 3165 3166 3167 3167 3167 3167 3167 3167 3166 3166 3165 3163 3162 3159 3156 3157 3156 3155 3153 3150 3148 3147 3146 3143 3142 3140 3137 3136 3134 3133